Voltar ao catálogo

STARLINK-36386

AtivoComunicaçõesSSO
NORAD 68612·PAYLOAD·🇺🇸 United States

Lançado Apr 5, 2026 de Vandenberg Space Force Base

Loading…

Próximas Passagens (próximas 24 horas)

TLE

AtualizadoSource: CelesTrak SupGP

Época: Sep 15, 2026, 03:30 UTC

1 68612C 26073L   26258.14631944 -.00054344  00000+0 -16869-2 0  2587
2 68612  97.2850  96.2026 0001764  91.2184  57.1005 15.33466990    19

Acompanhe STARLINK-36386 em tempo real com AllMySat

Download on the App Store